[[{"header":{"parameterUnit":"m.s-1","parameterCategory":1,"la1":30.2991,"la2":30.254,"lo1":-89.0895,"lo2":-89.0444,"dy":0.0017,"dx":0.0017,"nx":28,"ny":28,"refTime":"2025-06-09T09:00:00:Z","depth":0,"parameterNumber":2,"parameterNumberName":"U-component_of_WINDS"},"data":[0,0,0,0,0,0,0,0,0,0,0,0,0,0,0,0,0,0,0,0,0,0,0,0,0,0,0,0,0,0,0,0,0,0,0,0,0,0,0,0,0,0,0,0,0,0,0,0,0,0,0,0,0,0,0,0,0,0,5.5928,5.593,0,5.6068,5.607,5.6071,5.6003,5.5999,5.5996,5.5992,5.6135,5.6142,5.6149,0,0,0,0,0,0,0,0,0,0,0,0,0,5.5599,5.5605,5.5928,5.593,5.5932,5.6068,5.607,5.6072,5.6003,5.5999,5.5995,5.5991,5.6133,5.6141,5.615,0,0,0,0,0,0,0,0,0,0,0,0,0,5.5741,5.5607,5.5928,5.5914,5.5914,5.6067,5.607,5.6072,5.6004,5.5999,5.5994,5.5988,5.613,5.614,5.6151,5.6326,0,0,5.6184,5.6189,0,0,0,0,0,0,0,0,5.5733,5.5753,5.5914,5.5915,5.5916,5.6012,5.6006,5.6157,5.6006,5.597,5.5992,5.5986,5.6099,5.6112,5.615,5.6333,5.6339,5.6185,5.6191,5.6196,5.6199,0,0,0,0,0,0,0,5.5723,5.5746,5.5983,5.5917,5.5918,5.59,5.5914,5.6034,5.6063,5.5973,5.5968,5.5986,5.6098,5.614,5.6153,5.6341,5.6185,5.6194,5.6201,5.6205,5.6668,5.6674,0,0,0,0,0,0,5.5714,5.5739,5.5979,5.5988,5.5809,5.591,5.5926,5.5987,5.6062,5.6068,5.599,5.5982,5.6124,5.614,5.6157,5.6363,5.6196,5.6206,5.6212,5.6662,5.667,5.6676,0,0,0,0,0,0,5.5707,5.5736,5.5973,5.5862,5.5891,5.5922,5.5991,5.5993,5.6034,5.6075,5.6079,5.6028,5.612,5.6142,5.6283,5.6367,5.6211,5.6221,5.6656,5.6665,5.6673,5.6777,0,0,0,0,0,0,5.5698,5.5734,5.5802,5.5864,5.5897,5.6098,5.5996,5.5999,5.6053,5.6043,5.6111,5.6117,5.6118,5.6268,5.6294,5.6379,5.6229,5.6648,5.666,5.667,5.6766,5.6788,5.6807,0,0,0,0,0,5.5687,5.5827,5.5806,5.5835,5.5982,5.6103,5.6122,5.612,5.606,5.6127,5.6152,5.6115,5.6354,5.6283,5.6312,5.6401,5.6643,5.6656,5.6669,5.6757,5.6784,5.6807,0,0,0,0,0,0,5.5774,5.5835,5.5812,5.5977,5.6035,5.6091,5.6176,5.6149,5.6226,5.6214,5.6209,5.6224,5.6369,5.64,5.6319,5.6571,5.6489,5.6509,5.6546,5.6572,5.6592,5.658,5.6238,0,0,0,0,0,5.5813,5.5907,5.5954,5.6095,5.6125,5.6146,5.6199,5.6192,5.6252,5.6276,5.6312,5.6372,5.646,5.6518,5.6602,5.6771,5.6782,5.6847,5.6867,5.6884,5.69,5.6986,5.7014,5.6719,5.6719,5.6719,0,0,5.5894,5.5938,5.5998,5.6114,5.6158,5.6253,5.6167,5.6273,5.6343,5.6293,5.6426,5.6455,5.6521,5.6675,5.6745,5.6705,5.6984,5.6901,5.6914,5.6921,5.7003,5.7031,5.7055,5.6728,5.6726,5.6725,0,0,5.6088,5.6133,5.6252,5.6298,5.6366,5.6378,5.6407,5.6467,5.6483,5.6618,5.6581,5.6664,5.6817,5.6863,5.6907,5.7116,5.7082,5.7144,5.725,5.7334,5.7357,5.7378,5.7447,5.7473,5.716,5.7161,5.7161,0,5.6179,5.6322,5.6318,5.6425,5.6475,5.6433,5.6552,5.6597,5.6689,5.6724,5.6678,5.6866,5.6908,5.707,5.712,5.7159,5.7189,5.7135,5.7354,5.7375,5.7394,5.746,5.7487,5.7167,5.7166,5.7166,5.7165,0,5.6428,5.6527,5.6616,5.6703,5.6764,5.6877,5.6888,5.695,5.6938,5.6954,5.7089,5.7138,5.7228,5.7267,5.7257,5.7427,5.7399,5.7355,5.7271,5.7429,5.749,5.7516,5.7177,5.7174,5.7172,5.7171,0,0,5.6681,5.6764,5.6796,5.6833,5.6904,5.6979,5.7089,5.7177,5.7228,5.7293,5.7382,5.7511,5.7468,5.7518,5.7513,5.7588,5.7744,5.7533,5.7534,5.7566,5.7928,5.7958,5.7988,5.7723,5.7728,5.7732,5.7921,0,5.6877,5.7069,5.7066,5.7243,5.7332,5.7293,5.7388,5.744,5.7458,5.7535,5.7555,5.7645,5.7585,5.7613,5.7686,5.7709,5.7815,5.7696,5.7803,5.7807,5.7783,5.8021,5.8055,5.8231,5.7946,5.795,5.7953,0,5.7131,5.7201,5.7387,5.744,5.7477,5.7563,5.764,5.7716,5.7773,5.7781,5.7835,5.7817,5.7926,5.7841,5.7989,5.7908,5.7951,5.7969,5.7976,5.7982,5.7887,5.803,5.8288,5.8312,5.7992,5.7989,5.7986,0,5.7291,5.7433,5.756,5.7594,5.7661,5.7721,5.7752,5.7804,5.7855,5.7924,5.7956,5.8037,5.808,5.8142,5.8145,5.8084,5.8292,5.8209,5.8299,5.8298,5.8342,5.8338,5.8605,5.8377,5.8377,5.8376,5.8376,0,5.7507,5.7621,5.7632,5.7711,5.7835,5.7832,5.7955,5.798,5.8026,5.8107,5.8079,5.8155,5.8157,5.8234,5.8237,5.8356,5.8378,5.8384,5.8383,5.8384,5.8383,5.841,5.8396,5.8383,5.8382,5.8381,5.8379,0,5.7706,5.7719,5.7855,5.7906,5.7921,5.8011,5.8054,5.8127,5.8142,5.8244,5.8268,5.8291,5.8379,5.8389,5.8494,5.8496,5.8638,5.8626,5.8618,5.8614,5.8701,5.8691,5.8992,5.9029,5.8781,5.8783,5.8785,0,5.7841,5.7927,5.7987,5.8038,5.8072,5.8156,5.8207,5.8207,5.8261,5.8331,5.8395,5.8481,5.8549,5.8693,5.8718,5.8796,5.8783,5.8883,5.8795,5.8792,5.8779,5.8772,5.8778,5.8899,5.8902,5.8904,5.8906,0,5.8078,5.8079,5.8154,5.8231,5.8293,5.8354,5.8411,5.8455,5.846,5.8523,5.8612,5.8665,5.877,5.8854,5.8931,5.8961,5.8933,5.8934,5.8958,5.8958,5.8948,5.8949,5.8659,5.8926,5.8924,5.8923,5.8922,5.8921,5.8246,5.8318,5.837,5.8454,5.8496,5.8549,5.8619,5.8641,5.8716,5.8801,5.8796,5.8894,5.8946,5.9045,5.9081,5.9156,5.9123,5.9159,5.9167,5.9175,5.9181,5.8939,5.9171,5.917,5.917,5.9169,5.9169,0,5.8476,5.8507,5.8585,5.8663,5.8729,5.8698,5.8758,5.8814,5.89,5.8951,5.9018,5.9119,5.92,5.9231,5.9309,5.9363,5.9352,5.9384,5.9377,5.9384,5.9209,5.9178,5.9391,5.9391,5.9391,5.9391,5.9391,5.9391,5.8604,5.8723,5.873,5.8869,5.8899,5.8995,5.9031,5.9078,5.9118,5.9232,5.9299,5.9318,5.936,5.944,5.9512,5.9519,5.9547,5.9583,5.9584,5.9419,5.9397,5.9375,5.9346,5.959,5.959,5.9751,5.9753,5.9754]},{"header":{"parameterUnit":"m.s-1","parameterCategory":1,"la1":30.2991,"la2":30.254,"lo1":-89.0895,"lo2":-89.0444,"dy":0.0017,"dx":0.0017,"nx":28,"ny":28,"refTime":"2025-06-09T09:00:00:Z","depth":0,"parameterNumber":3,"parameterNumberName":"V-component_of_WINDS"},"data":[0,0,0,0,0,0,0,0,0,0,0,0,0,0,0,0,0,0,0,0,0,0,0,0,0,0,0,0,0,0,0,0,0,0,0,0,0,0,0,0,0,0,0,0,0,0,0,0,0,0,0,0,0,0,0,0,0,0,3.9453,3.9453,0,3.9523,3.9524,3.9525,3.9469,3.9467,3.9464,3.9462,3.9532,3.9536,3.954,0,0,0,0,0,0,0,0,0,0,0,0,0,3.9265,3.9269,3.9452,3.9453,3.9454,3.9523,3.9524,3.9525,3.9469,3.9467,3.9464,3.9461,3.953,3.9535,3.954,0,0,0,0,0,0,0,0,0,0,0,0,0,3.9342,3.927,3.9452,3.9435,3.9434,3.9523,3.9524,3.9525,3.947,3.9467,3.9463,3.946,3.9529,3.9535,3.9541,3.965,0,0,3.9559,3.9562,0,0,0,0,0,0,0,0,3.9338,3.9349,3.9437,3.9436,3.9435,3.9484,3.9483,3.9567,3.9471,3.9456,3.9462,3.9458,3.9518,3.9525,3.9546,3.9653,3.9656,3.956,3.9564,3.9566,3.9568,0,0,0,0,0,0,0,3.9333,3.9346,3.948,3.9438,3.9437,3.9422,3.9429,3.9499,3.9506,3.9457,3.9453,3.9463,3.9517,3.954,3.9547,3.9657,3.956,3.9565,3.9569,3.9571,3.9853,3.9857,0,0,0,0,0,0,3.933,3.9342,3.9478,3.9482,3.9377,3.9428,3.9436,3.9472,3.9506,3.9507,3.9466,3.946,3.9532,3.954,3.955,3.9677,3.9566,3.9572,3.9575,3.9849,3.9854,3.9858,0,0,0,0,0,0,3.9326,3.9342,3.9475,3.9411,3.9427,3.9435,3.9476,3.9475,3.9498,3.9512,3.9512,3.9488,3.9529,3.9541,3.9625,3.9679,3.9575,3.958,3.9845,3.9851,3.9856,3.9935,0,0,0,0,0,0,3.9321,3.9341,3.9384,3.9413,3.9431,3.9551,3.9479,3.9479,3.9509,3.9502,3.9533,3.9535,3.9527,3.9616,3.9631,3.9686,3.9585,3.984,3.9847,3.9854,3.9928,3.9943,3.9956,0,0,0,0,0,3.9314,3.9403,3.9386,3.9403,3.9484,3.9554,3.9564,3.9555,3.9514,3.9556,3.9564,3.9534,3.9671,3.9625,3.9641,3.9699,3.9836,3.9845,3.9854,3.9922,3.994,3.9956,0,0,0,0,0,0,3.9381,3.9407,3.9388,3.949,3.952,3.9545,3.9598,3.9575,3.9617,3.9609,3.9594,3.9602,3.9689,3.9702,3.9651,3.9804,3.9747,3.9759,3.9793,3.9811,3.9824,3.9819,3.959,0,0,0,0,0,3.9407,3.9463,3.9482,3.957,3.9586,3.9589,3.9619,3.9609,3.964,3.9652,3.9667,3.9697,3.9746,3.9779,3.9825,3.9929,3.9934,3.9977,3.9991,4.0002,4.0013,4.0066,4.0085,3.9886,3.9886,3.9886,0,0,3.9463,3.9484,3.952,3.9584,3.9606,3.9663,3.9601,3.9664,3.9705,3.9661,3.9741,3.9753,3.9785,3.9879,3.992,3.9892,4.0069,4.0013,4.0022,4.0027,4.0077,4.0096,4.0113,3.9892,3.9891,3.989,0,0,3.9592,3.9615,3.9689,3.9713,3.9747,3.9748,3.9766,3.9794,3.98,3.988,3.9848,3.9895,3.9982,4.0005,4.0029,4.0164,4.0137,4.018,4.0253,4.0306,4.0321,4.0335,4.0382,4.0399,4.019,4.0191,4.0191,0,3.9657,3.9742,3.973,3.9795,3.9823,3.9787,3.9861,3.9883,3.9931,3.9951,3.9918,4.0024,4.0043,4.0141,4.0174,4.0194,4.0213,4.0176,4.032,4.0334,4.0347,4.0391,4.0409,4.0195,4.0195,4.0194,4.0194,0,3.9818,3.9877,3.9933,3.998,4.0014,4.0084,4.0081,4.0117,4.0103,4.0107,4.0187,4.0208,4.0258,4.028,4.0267,4.0375,4.0356,4.0323,4.0264,4.0371,4.0412,4.0429,4.0202,4.0201,4.0199,4.0198,0,0,3.9993,4.0032,4.0052,4.0072,4.0106,4.0151,4.0217,4.0266,4.0296,4.033,4.0384,4.0456,4.0425,4.0451,4.044,4.0486,4.059,4.0446,4.0447,4.0471,4.0708,4.0733,4.0753,4.0572,4.0576,4.0578,4.0705,0,4.0123,4.024,4.023,4.034,4.0393,4.0358,4.0415,4.0442,4.0447,4.0491,4.0496,4.0547,4.0502,4.0518,4.0562,4.0568,4.0637,4.0559,4.0621,4.0623,4.0614,4.0775,4.0802,4.0921,4.0721,4.0724,4.0726,0,4.0291,4.033,4.0446,4.047,4.0492,4.0544,4.0586,4.063,4.0658,4.0658,4.0687,4.0667,4.0732,4.0672,4.076,4.0707,4.0731,4.0738,4.0742,4.0747,4.0681,4.0783,4.0959,4.0976,4.0752,4.075,4.0748,0,4.0405,4.0487,4.0566,4.0584,4.0615,4.0652,4.0666,4.0691,4.072,4.0756,4.0775,4.0818,4.0842,4.0875,4.0867,4.0825,4.0956,4.0896,4.0957,4.0957,4.0986,4.0984,4.1167,4.1003,4.1003,4.1002,4.1002,0,4.0551,4.0623,4.0617,4.0666,4.0744,4.0731,4.0808,4.0818,4.084,4.0888,4.086,4.0906,4.0893,4.0938,4.0932,4.1004,4.1015,4.1016,4.1013,4.1018,4.1018,4.1034,4.1025,4.1007,4.1006,4.1005,4.1004,0,4.0693,4.0692,4.0775,4.0797,4.0804,4.0861,4.0878,4.0923,4.0925,4.0986,4.1,4.1003,4.1053,4.1049,4.1106,4.1102,4.1191,4.1179,4.1182,4.1179,4.1239,4.1233,4.1438,4.1463,4.1284,4.1286,4.1287,0,4.0786,4.084,4.0867,4.0898,4.0914,4.0964,4.0993,4.0982,4.1013,4.1048,4.1088,4.1136,4.1174,4.1257,4.1263,4.1306,4.1294,4.1362,4.13,4.1302,4.1293,4.129,4.1294,4.1375,4.1377,4.1378,4.138,0,4.095,4.0947,4.0991,4.1034,4.107,4.1103,4.1133,4.116,4.1151,4.1187,4.1239,4.1268,4.1326,4.1373,4.1414,4.1426,4.1401,4.1399,4.1415,4.142,4.1419,4.1419,4.1214,4.1395,4.1393,4.1392,4.1391,4.1391,4.1069,4.1115,4.1141,4.119,4.1211,4.124,4.1282,4.1289,4.1332,4.1379,4.1369,4.1427,4.1451,4.1502,4.1519,4.1563,4.1538,4.1561,4.1567,4.1573,4.1579,4.1413,4.157,4.157,4.1569,4.1569,4.1569,0,4.1231,4.1246,4.1291,4.1334,4.1372,4.1346,4.1377,4.141,4.1462,4.1487,4.1524,4.1583,4.1628,4.1637,4.168,4.1713,4.1703,4.1725,4.1722,4.1725,4.16,4.1581,4.1732,4.1732,4.1732,4.1732,4.1732,4.1732,4.132,4.1395,4.1394,4.1479,4.1492,4.1549,4.1569,4.1595,4.1614,4.1681,4.1719,4.1725,4.1743,4.1786,4.1826,4.1827,4.1844,4.187,4.1867,4.175,4.1734,4.1718,4.17,4.1874,4.1874,4.1988,4.1989,4.199]}]]